Location: Kudlacze
(49.7800°N, 20.0200°E)
Time: 19:08:49
(UTC+00:00)

X-37B - Visible Passes

Search period start: 24 September 2021 00:00
Search period end: 04 October 2021 00:00
Orbit: 381 x 393 km, 45.0° (Epoch: 29 August)

Date Brightness Start Highest point End Pass type
(mag) Time Alt. Az. Time Alt. Az. Time Alt. Az.
24 Sep 2.6 03:03:52 15° SSW 03:05:20 20° SSE 03:07:44 10° ESE visible
25 Sep 3.4 02:08:12 13° SE 02:08:12 13° SE 02:08:57 10° ESE visible
25 Sep 1.9 03:40:29 11° SW 03:43:14 31° S 03:46:06 10° ESE visible
26 Sep 2.0 02:44:46 25° S 02:45:01 25° SSE 02:47:42 10° ESE visible
27 Sep 3.7 01:49:03 11° ESE 01:49:03 11° ESE 01:49:11 10° ESE visible
27 Sep 1.6 03:21:20 20° SW 03:22:58 34° S 03:25:53 10° ESE visible
28 Sep 2.3 02:25:37 26° SE 02:25:37 26° SE 02:27:33 10° ESE visible
28 Sep 1.8 03:58:07 10° WSW 04:00:57 30° S 04:03:47 10° SE visible
29 Sep 1.5 03:02:12 31° SSW 03:02:42 34° S 03:05:36 10° ESE visible
30 Sep 3.2 02:06:32 16° ESE 02:06:32 16° ESE 02:07:20 10° ESE visible
30 Sep 2.0 03:38:49 15° WSW 03:40:39 25° SSW 03:43:19 10° SE visible
01 Oct 2.1 02:43:12 26° SSE 02:43:12 26° SSE 02:45:15 10° SE visible
02 Oct 2.3 03:19:58 19° SSW 03:20:19 19° SSW 03:22:38 10° SSE visible
03 Oct 3.4 02:24:30 12° SE 02:24:30 12° SE 02:24:46 10° SE visible
